#timestamp,LO_Frequency,Hit 
1499230815.7,286046987.2,N
1499230835.5,286046989.2,N
1499230855.3,286046988.5,N
1499230875.2,286046991.6,N
1499230895.9,286046988.7,N
1499230915.7,286046988.5,N
1499230935.6,286046990.4,N
1499230955.4,286046991.0,N
1499230975.2,286046991.5,N
1499230995.1,286046990.7,N
1499230996.0,286046990.7,N
1499231015.8,286046988.9,N
1499231035.6,286046989.3,N
1499231055.5,286046991.5,N
1499231075.3,286046989.0,N
1499231095.1,286046989.8,N
1499231115.8,286046988.0,N
1499231135.7,286046987.7,N
1499231155.5,286046989.0,N
1499231175.3,286046989.1,N
1499231195.2,286046993.1,N
1499231215.9,286046993.1,N
1499231235.7,286046988.6,N
1499231255.6,286046993.0,N
1499231275.4,286046993.1,N
1499231295.2,286046992.1,N
1499231315.1,286046992.8,N
1499231316.0,286046992.8,N
1499231335.8,286046988.6,N
1499231355.6,286046990.0,N
1499231375.5,286046989.9,N
1499231395.3,286046991.4,N
1499231415.1,286046990.9,N
1499231435.8,286046988.5,N
1499231455.7,286046990.0,N
1499231475.5,286046987.8,N
1499231495.3,286046991.6,N
1499231515.2,286046990.7,N
1499231535.0,286046990.9,N
1499231535.9,286046990.9,N
1499231555.7,286046990.4,N
1499231575.6,286046992.1,N
1499231595.4,286046990.9,N
1499231615.2,286046991.0,N
1499231635.1,286046992.6,N
1499231636.0,286046992.6,N
1499231655.8,286046989.9,N
1499231675.6,286046985.8,N
1499231695.5,286046988.7,N
1499231715.3,286046991.5,N
1499231735.1,286046988.2,N
1499231755.9,286046989.9,N
1499231775.7,286046989.4,N
1499231795.5,286046987.8,N
1499231815.4,286046989.2,N
1499231835.2,286046989.6,N
1499231855.0,286046989.9,N
1499231855.9,286046989.9,N
1499231875.8,286046989.4,N
1499231895.6,286046989.8,N
1499231915.4,286046986.3,N
1499231935.2,286046988.2,N
1499231955.1,286046989.5,N
1499231956.0,286046989.5,N
1499231975.8,286046989.2,N
1499231995.6,286046989.1,N
1499232015.5,286046986.9,N
1499232035.3,286046991.2,N
1499232055.1,286046989.2,N
1499232075.9,286046992.2,N
1499232095.7,286046992.9,N
1499232115.5,286046993.1,N
1499232135.4,286046991.2,N
1499232155.2,286046988.9,N
1499232175.0,286046985.5,N
1499232175.9,286046985.5,N
1499232195.8,286046982.6,N
1499232215.6,286046984.7,N
1499232235.4,286046986.4,N
1499232255.3,286046986.8,N
1499232275.1,286046984.1,N
1499232276.0,286046984.1,N
1499232295.8,286046986.5,N
1499232315.7,286046986.2,N
1499232335.5,286046985.6,N
1499232355.3,286046985.5,N
1499232375.1,286046990.0,N
1499232395.9,286046989.8,N
1499232415.7,286046989.9,N
1499232435.5,286046988.5,N
1499232455.4,286046989.0,N
1499232475.2,286046990.0,N
1499232495.0,286046989.4,N
1499232495.9,286046989.4,N
1499232515.8,286046992.8,N
1499232535.6,286046988.6,N
1499232555.4,286046988.7,N
1499232575.3,286046991.2,N
1499232595.1,286046990.8,N
1499232596.0,286046990.8,N
1499232615.8,286046990.9,N
1499232635.7,286046991.4,N
1499232655.5,286046990.6,N
1499232675.3,286046992.7,N
1499232695.2,286046993.0,N
1499232715.9,286046992.6,N
1499232735.7,286046992.7,N
1499232755.6,286046992.3,N
1499232775.4,286046992.9,N
1499232795.2,286046993.1,N
1499232815.0,286046991.3,N
1499232815.9,286046991.3,N
1499232835.8,286046991.1,N
1499232855.6,286046991.6,N
1499232875.4,286046991.6,N
1499232895.3,286046990.8,N
1499232915.1,286046993.1,N
1499232935.8,286046988.5,N
1499232955.7,286046988.9,N
1499232975.5,286046990.3,N
1499232995.3,286046992.4,N
1499233015.2,286046992.6,N
1499233035.9,286046990.1,N
1499233055.7,286046990.4,N
1499233075.6,286046991.4,N
1499233095.4,286046990.1,N
1499233115.2,286046991.0,N
1499233135.1,286046992.6,N
1499233136.0,286046992.6,N
1499233155.8,286046992.8,N
1499233175.6,286046991.9,N
1499233195.5,286046991.5,N
1499233215.3,286046991.6,N
1499233235.1,286046989.0,N
1499233255.8,286046988.8,N
1499233275.7,286046990.7,N
1499233295.5,286046990.1,N
1499233315.3,286046991.2,N
1499233335.2,286046987.0,N
1499233355.9,286046989.0,N
1499233375.7,286046989.3,N
1499233395.6,286046988.6,N
1499233415.4,286046989.7,N
1499233435.2,286046987.3,N
1499233455.1,286046989.8,N
1499233456.0,286046989.8,N
1499233475.8,286046989.0,N
1499233495.6,286046987.2,N
1499233515.5,286046988.4,N
1499233535.3,286046985.4,N
1499233555.1,286046983.8,N
1499233575.8,286046986.7,N
1499233595.7,286046988.1,N
1499233615.5,286046987.5,N
1499233635.3,286046985.5,N
1499233655.2,286046985.7,N
1499233675.9,286046989.7,N
1499233695.7,286046988.9,N
1499233715.6,286046985.3,N
1499233735.4,286046986.6,N
1499233755.2,286046986.6,N
1499233775.1,286046988.1,N
1499233776.0,286046988.1,N
1499233795.8,286046988.3,N
1499233815.6,286046983.7,N
1499233835.5,286046983.6,N
1499233855.3,286046984.5,N
1499233875.1,286046984.3,N
1499233895.9,286046986.1,N
1499233915.7,286046982.4,N
1499233935.5,286046984.2,N
1499233955.3,286046984.8,N
1499233975.2,286046986.3,N
1499233995.0,286046983.3,N
1499233995.9,286046983.3,N
1499234015.7,286046982.3,N
1499234035.6,286046982.7,N
1499234055.4,286046980.6,N
1499234075.2,286046983.1,N
1499234095.1,286046980.8,N
1499234096.0,286046980.8,N
1499234115.8,286046981.1,N
1499234135.6,286046981.5,N
1499234155.5,286046981.2,N
1499234175.3,286046982.8,N
1499234195.1,286046982.6,N
1499234215.9,286046984.0,N
1499234235.7,286046984.7,N
1499234255.5,286046985.0,N
1499234275.4,286046984.8,N
1499234295.2,286046982.9,N
1499234315.0,286046983.0,N
1499234315.9,286046983.0,N
1499234335.8,286046981.3,N
1499234355.6,286046982.0,N
1499234375.4,286046980.4,N
1499234395.2,286046981.7,N
